Simultaneous Nadir Overpasses (SNOs) Predictions

Prediction of SNOs between GOES-14 and AQUA Satellite Orbit:

Table of predicted SNOs for the next 14.0 days since TLE Epoch: 9/28/2024
Index Date Time (GOES-14) GOES-14 Lat,Lon AQUA Lat,Lon Distance(km) Time Diff (sec)
1 09/29/2024 09:17:56 -0.06,-108.50 -0.74,-105.32 361.28 80
2 09/29/2024 21:37:55 0.06,-108.44 -0.28,-110.16 195.17 80
3 10/01/2024 21:22:51 0.06,-108.45 0.60,-105.81 299.28 80
4 10/02/2024 09:42:40 -0.06,-108.52 0.37,-110.62 238.21 80
5 10/04/2024 09:22:15 -0.06,-108.53 -0.56,-106.28 256.74 80
6 10/04/2024 21:42:12 0.06,-108.47 -0.52,-111.10 299.89 80
7 10/06/2024 21:27:05 0.06,-108.47 0.41,-106.75 195.74 80
8 10/07/2024 09:46:54 -0.06,-108.55 0.56,-111.55 340.94 80
9 10/09/2024 09:26:25 -0.07,-108.55 -0.37,-107.19 154.65 80
10 10/09/2024 21:46:21 0.07,-108.47 -0.71,-112.01 402.30 80
11 10/11/2024 21:31:11 0.07,-108.47 0.28,-107.65 94.12 80
